SDG096 LICP-LICC

Flight info

Callsign SDG096
Flight time N/A
Altitude 5500
Route MONREALE PORTELLA DELLA GINESTRA PIANA DEGLI ALBANESI ENNA LAGO DI PERGUSA LAGO DI OGLIASTRO
Aircraft F33A/L-S/C

Departure

Time 2026-05-06 08:42
Airport Palermo-Boccadifalco Airport (LICP)

Arrival

Time N/A
Airport Catania-Fontanarossa Airport (LICC)
Time Latitude Longitude Altitude Speed Heading
2026-05-06 08:32 38.11820 13.31140 308 ft 0 kts 194°
2026-05-06 08:36 38.11816 13.31142 308 ft 1 kts 103°
2026-05-06 08:36 38.11826 13.31156 307 ft 0 kts 83°
2026-05-06 08:36 38.11832 13.31194 304 ft 6 kts 90°
2026-05-06 08:36 38.11816 13.31240 302 ft 0 kts 116°
2026-05-06 08:37 38.11811 13.31255 302 ft 0 kts 110°
2026-05-06 08:40 38.11714 13.31306 307 ft 39 kts 172°
2026-05-06 08:41 38.11268 13.31379 359 ft 77 kts 173°
2026-05-06 08:41 38.10796 13.31598 565 ft 77 kts 168°
2026-05-06 08:41 38.10267 13.31710 759 ft 70 kts 162°
2026-05-06 08:41 38.09795 13.31884 862 ft 73 kts 176°
2026-05-06 08:42 38.09248 13.31924 969 ft 79 kts 200°
2026-05-06 08:42 38.08739 13.31676 1144 ft 85 kts 204°
2026-05-06 08:42 38.08147 13.31547 1370 ft 84 kts 185°
2026-05-06 08:42 38.07556 13.31546 1523 ft 91 kts 190°
2026-05-06 08:43 38.06964 13.31395 1761 ft 88 kts 196°
2026-05-06 08:43 38.06394 13.31206 1933 ft 91 kts 208°
2026-05-06 08:43 38.05915 13.30779 2056 ft 94 kts 267°
2026-05-06 08:43 38.05937 13.30021 2325 ft 81 kts 252°
2026-05-06 08:44 38.05719 13.29314 2376 ft 99 kts 251°
2026-05-06 08:44 38.05492 13.28511 2541 ft 100 kts 236°
2026-05-06 08:44 38.04897 13.28052 2694 ft 101 kts 190°
2026-05-06 08:44 38.04211 13.27628 2511 ft 132 kts 214°
2026-05-06 08:45 38.03671 13.26941 2940 ft 94 kts 240°
2026-05-06 08:45 38.03490 13.26113 2892 ft 98 kts 265°
2026-05-06 08:45 38.03419 13.25220 2703 ft 112 kts 247°
2026-05-06 08:45 38.02917 13.24436 2630 ft 113 kts 222°
2026-05-06 08:46 38.02548 13.23757 2860 ft 89 kts 240°